Regional Weather Roundup
Issued by NWS Cleveland, OH

Home | Current Version | Previous Version | Graphics & Text | Print | Product List | Glossary On
Versions: 1 2 3 4 5 6 7 8 9 10 11 12 13 14 15 16 17 18 19 20 21 22 23 24 25 26 27 28 29 30 31 32 33 34 35 36 37 38 39 40 41 42 43 44 45 46 47 48 49 50
000
ASUS41 KCLE 232302
RWRCLE
OHIO REGIONAL WEATHER ROUNDUP
NATIONAL WEATHER SERVICE CLEVELAND, OH
700 PM EDT WED JUL 23 2014

NOTE: "FAIR" INDICATES FEW OR NO CLOUDS BELOW 12,000 FEET WITH NO
SIGNIFICANT WEATHER AND/OR OBSTRUCTIONS TO VISIBILITY.

OHZ001>008-015>018-024>027-034-035-043-044-240000-
   NORTHWEST OHIO

CITY           SKY/WX    TMP DP  RH WIND       PRES   REMARKS
DEFIANCE       CLOUDY    75  58  55 NE8       30.04R
FINDLAY        CLOUDY    69  62  78 E10       30.03R
TOLEDO EXPRESS CLOUDY    71  57  61 N7        30.05R
TOLEDO EXEC    CLOUDY    69  59  70 E7        30.05R
LIMA           CLOUDY    71  64  78 N9        30.03S
$$

OHZ009>014-019>023-028>033-038-089-240000-
   NORTHEAST OHIO

CITY           SKY/WX    TMP DP  RH WIND       PRES   REMARKS
CLE-HOPKINS    CLOUDY    65  57  75 N12       30.05R
CLE-LAKEFRONT  CLOUDY    66  58  75 N15       30.01R
CUY CO. ARPT   CLOUDY    66  61  82 N12       30.03R
LORAIN-ELYRIA  CLOUDY    68  58  70 N9        30.05R
ASHTABULA      CLOUDY    67  60  78 NW7       30.01R
AKRON-CANTON   CLOUDY    67  59  75 N10       30.02R
WOOSTER        CLOUDY    66  59  78 N10       30.03R
MANSFIELD      CLOUDY    64  62  93 N9        30.05R FOG
YOUNGSTOWN     CLOUDY    66  60  81 NW13      30.00R
$$

OHZ042-051>053-060>062-070>072-077>081-240000-
  SOUTHWEST OHIO

CITY           SKY/WX    TMP DP  RH WIND       PRES   REMARKS
CINC-COVINGTON PTSUNNY   81  70  69 NE6       29.97F
CINC-LUNKEN    PTSUNNY   79  70  74 E3        29.96F
HAMILTON       PTSUNNY   79  71  76 N5        29.98F
DAYTON         CLOUDY    72  68  87 N14       30.02S
WRIGHT-PAT AFB CLOUDY    73  68  85 N13       30.00R
DAYTON GENERAL CLOUDY    78  69  73 N9        29.98F
WILMINGTON     PTSUNNY   77  66  68 N7        29.99S
$$

OHZ036-037-039>041-045>050-054>059-063>069-073>076-082>088-240000-
  CENTRAL AND SOUTHEAST OHIO

CITY           SKY/WX    TMP DP  RH WIND       PRES   REMARKS
COLUMBUS       CLOUDY    77  67  71 N13G18    29.98R
OSU AIRPORT    CLOUDY    71  67  87 N9        30.00R
BOLTON FIELD   DRIZZLE   73  70  88 N10       29.99S
RICKENBACK AFB CLOUDY    79  63  57 N7        29.97S
NEWARK         CLOUDY    74  66  76 N8        29.98R
MARION         CLOUDY    67  63  87 NE10      30.04R
LANCASTER      PTSUNNY   78  67  68 N6        29.98S
ZANESVILLE     PTSUNNY   75  67  76 N8        29.98R
NEW PHILLY     CLOUDY    70  64  81 N10       30.00R
$$



USA.gov is the U.S. government's official web portal to all federal, state and local government web resources and services.